[[{"header":{"parameterUnit":"m.s-1","parameterCategory":1,"la1":30.2991,"la2":30.254,"lo1":-89.0895,"lo2":-89.0444,"dy":0.0017,"dx":0.0017,"nx":28,"ny":28,"refTime":"2024-08-04T21:00:00:Z","depth":0,"parameterNumber":2,"parameterNumberName":"U-component_of_WINDS"},"data":[0,0,0,0,0,0,0,0,0,0,0,0,0,0,0,0,0,0,0,0,0,0,0,0,0,0,0,0,0,0,0,0,0,0,0,0,0,0,0,0,0,0,0,0,0,0,0,0,0,0,0,0,0,0,0,0,0,0,0.0545,0.0546,0,0.0658,0.0659,0.0661,0.0689,0.0688,0.0688,0.0687,0.0805,0.0809,0.0812,0,0,0,0,0,0,0,0,0,0,0,0,0,0.0359,0.0362,0.0545,0.0547,0.0548,0.0658,0.0659,0.0661,0.0689,0.0688,0.0687,0.0687,0.0804,0.0808,0.0813,0,0,0,0,0,0,0,0,0,0,0,0,0,0.0452,0.0363,0.0545,0.0575,0.0579,0.0658,0.0659,0.0661,0.0689,0.0688,0.0687,0.0686,0.0802,0.0808,0.0813,0.0871,0,0,0.0831,0.0833,0,0,0,0,0,0,0,0,0.0447,0.0459,0.0569,0.0573,0.0578,0.0658,0.0637,0.0732,0.069,0.0647,0.0687,0.0686,0.0757,0.0767,0.079,0.0876,0.0881,0.0831,0.0835,0.0837,0.0839,0,0,0,0,0,0,0,0.044,0.0454,0.059,0.0571,0.0576,0.0585,0.0597,0.0655,0.0707,0.0651,0.0653,0.0666,0.0759,0.0785,0.0793,0.0883,0.0831,0.0836,0.084,0.0842,0.1026,0.1028,0,0,0,0,0,0,0.0428,0.0449,0.0586,0.0593,0.0508,0.0589,0.0602,0.0634,0.0707,0.0717,0.0667,0.0667,0.0775,0.0786,0.0797,0.0872,0.0837,0.0843,0.0846,0.1025,0.1027,0.1028,0,0,0,0,0,0,0.0424,0.044,0.0582,0.0522,0.054,0.0593,0.0628,0.0636,0.0662,0.0719,0.0728,0.0683,0.0775,0.0789,0.0853,0.0877,0.0845,0.0851,0.1023,0.1025,0.1027,0.1021,0,0,0,0,0,0,0.0419,0.0438,0.0459,0.0522,0.0544,0.0634,0.0629,0.0639,0.0671,0.0672,0.0736,0.0746,0.0775,0.0844,0.0859,0.0884,0.0855,0.1021,0.1024,0.1027,0.1019,0.1022,0.1025,0,0,0,0,0,0.0412,0.0453,0.046,0.0477,0.0571,0.0635,0.0648,0.068,0.0673,0.0696,0.0733,0.0744,0.0871,0.0851,0.0867,0.0895,0.102,0.1023,0.1026,0.1018,0.1022,0.1025,0,0,0,0,0,0,0.0392,0.0461,0.0471,0.0533,0.0578,0.064,0.0669,0.0682,0.0731,0.073,0.0769,0.0783,0.0845,0.0876,0.0852,0.0956,0.0946,0.0953,0.0934,0.0938,0.0941,0.0933,0.086,0,0,0,0,0,0.0394,0.044,0.0499,0.0548,0.057,0.0616,0.0645,0.0666,0.0715,0.0734,0.0776,0.0824,0.0875,0.0908,0.0958,0.1023,0.104,0.1051,0.1054,0.1056,0.1062,0.1103,0.1109,0.1039,0.1039,0.1039,0,0,0.0401,0.0444,0.047,0.0545,0.0582,0.0631,0.0631,0.0681,0.0718,0.0742,0.0805,0.0838,0.0894,0.096,0.0991,0.0987,0.1085,0.106,0.1061,0.1066,0.1107,0.1113,0.1119,0.1041,0.1041,0.104,0,0,0.0437,0.0473,0.052,0.0558,0.0615,0.0645,0.0657,0.0717,0.074,0.0804,0.0824,0.0869,0.0955,0.0996,0.1027,0.1082,0.1096,0.1097,0.1114,0.1154,0.1159,0.1164,0.1187,0.1195,0.1103,0.1103,0.1103,0,0.0438,0.051,0.0542,0.0593,0.0626,0.065,0.0699,0.0734,0.0805,0.0829,0.0823,0.0935,0.0974,0.1052,0.1065,0.1089,0.1106,0.1091,0.1155,0.1161,0.1166,0.1189,0.1197,0.1103,0.1103,0.1103,0.1103,0,0.051,0.056,0.0591,0.0659,0.0696,0.0745,0.0787,0.0821,0.084,0.0871,0.0938,0.0986,0.1048,0.1068,0.1086,0.1149,0.1146,0.1147,0.1139,0.1173,0.1195,0.1203,0.1103,0.1103,0.1103,0.1103,0,0,0.0536,0.0623,0.0634,0.0667,0.0733,0.0773,0.0825,0.0885,0.0915,0.0963,0.101,0.1084,0.1087,0.1123,0.1146,0.118,0.1225,0.1178,0.118,0.1188,0.1302,0.1302,0.1311,0.1234,0.1235,0.1237,0.1298,0,0.0583,0.0675,0.0707,0.0785,0.0833,0.0858,0.0903,0.095,0.0981,0.1029,0.1064,0.1117,0.1115,0.1138,0.1173,0.1212,0.1249,0.1208,0.128,0.1282,0.1268,0.1322,0.1322,0.1377,0.1307,0.1308,0.1309,0,0.0649,0.07,0.0782,0.0845,0.0866,0.0906,0.0966,0.101,0.1065,0.1086,0.1127,0.1149,0.1207,0.1193,0.1275,0.1246,0.1278,0.1302,0.1305,0.1315,0.1299,0.1336,0.1396,0.1405,0.1322,0.1321,0.132,0,0.0664,0.0752,0.0814,0.084,0.0914,0.0943,0.0975,0.1028,0.1064,0.1116,0.1141,0.1199,0.1232,0.1278,0.1316,0.1302,0.1396,0.1384,0.1417,0.1417,0.1437,0.1436,0.1505,0.1453,0.1453,0.1453,0.1453,0,0.0714,0.0765,0.0822,0.086,0.0918,0.0955,0.1012,0.1046,0.1094,0.1141,0.1165,0.1209,0.1255,0.1305,0.1335,0.1401,0.1415,0.1435,0.1443,0.1435,0.1433,0.1458,0.1456,0.1455,0.1455,0.1454,0.1454,0,0.0741,0.0781,0.085,0.0915,0.0933,0.0973,0.103,0.1069,0.1102,0.1162,0.1178,0.1231,0.1292,0.1334,0.1412,0.1432,0.1505,0.151,0.1486,0.149,0.1522,0.152,0.1612,0.1628,0.1562,0.1563,0.1563,0,0.0772,0.0811,0.0881,0.0914,0.0946,0.0999,0.1036,0.1075,0.1112,0.1179,0.1211,0.1274,0.1326,0.1424,0.147,0.1531,0.1541,0.1569,0.155,0.1542,0.1545,0.1543,0.1549,0.1572,0.1573,0.1573,0.1574,0,0.0823,0.0841,0.0892,0.0952,0.0995,0.1044,0.1093,0.1119,0.1168,0.1209,0.1272,0.1313,0.1394,0.1457,0.1523,0.1559,0.1576,0.1579,0.1591,0.1584,0.1569,0.1581,0.1497,0.1577,0.1577,0.1577,0.1576,0.1576,0.0854,0.0892,0.0948,0.1006,0.1047,0.1093,0.1134,0.1173,0.1226,0.1295,0.1315,0.1381,0.1439,0.1529,0.1566,0.162,0.1618,0.1633,0.1638,0.1642,0.1644,0.1559,0.1631,0.1631,0.1631,0.1631,0.1631,0,0.091,0.0947,0.1,0.1068,0.1115,0.1125,0.1181,0.122,0.1278,0.1329,0.1381,0.1455,0.1517,0.157,0.1635,0.1668,0.1678,0.1684,0.1684,0.1693,0.164,0.1625,0.1676,0.1676,0.1676,0.1676,0.1676,0.1676,0.0944,0.1009,0.1035,0.1122,0.116,0.1225,0.1256,0.13,0.1342,0.1424,0.1476,0.1509,0.1562,0.1632,0.169,0.1704,0.1729,0.1734,0.175,0.1701,0.1696,0.1691,0.1677,0.1738,0.1738,0.1799,0.1799,0.18]},{"header":{"parameterUnit":"m.s-1","parameterCategory":1,"la1":30.2991,"la2":30.254,"lo1":-89.0895,"lo2":-89.0444,"dy":0.0017,"dx":0.0017,"nx":28,"ny":28,"refTime":"2024-08-04T21:00:00:Z","depth":0,"parameterNumber":3,"parameterNumberName":"V-component_of_WINDS"},"data":[0,0,0,0,0,0,0,0,0,0,0,0,0,0,0,0,0,0,0,0,0,0,0,0,0,0,0,0,0,0,0,0,0,0,0,0,0,0,0,0,0,0,0,0,0,0,0,0,0,0,0,0,0,0,0,0,0,0,-2.4989,-2.4989,0,-2.4996,-2.4996,-2.4996,-2.5053,-2.5054,-2.5055,-2.5057,-2.506,-2.5059,-2.5058,0,0,0,0,0,0,0,0,0,0,0,0,0,-2.5022,-2.5021,-2.4989,-2.4989,-2.499,-2.4996,-2.4996,-2.4996,-2.5052,-2.5054,-2.5056,-2.5057,-2.5061,-2.5059,-2.5058,0,0,0,0,0,0,0,0,0,0,0,0,0,-2.5016,-2.5021,-2.4989,-2.5018,-2.5021,-2.4996,-2.4996,-2.4996,-2.5052,-2.5054,-2.5056,-2.5058,-2.5061,-2.5059,-2.5058,-2.5005,0,0,-2.5052,-2.5051,0,0,0,0,0,0,0,0,-2.5016,-2.5015,-2.5014,-2.5016,-2.5019,-2.5026,-2.5009,-2.4999,-2.5051,-2.504,-2.5057,-2.5059,-2.5047,-2.5046,-2.5043,-2.5005,-2.5005,-2.5052,-2.5051,-2.505,-2.505,0,0,0,0,0,0,0,-2.5017,-2.5015,-2.4992,-2.5014,-2.5017,-2.503,-2.5032,-2.5008,-2.5031,-2.5041,-2.5045,-2.5046,-2.5049,-2.5045,-2.5043,-2.5005,-2.5052,-2.505,-2.5049,-2.5049,-2.4923,-2.4921,0,0,0,0,0,0,-2.5013,-2.5015,-2.4992,-2.4992,-2.5023,-2.5028,-2.503,-2.5021,-2.5032,-2.5036,-2.5044,-2.5048,-2.5047,-2.5046,-2.5044,-2.4981,-2.505,-2.5048,-2.5047,-2.4925,-2.4923,-2.492,0,0,0,0,0,0,-2.5014,-2.5011,-2.4992,-2.5005,-2.5003,-2.5025,-2.5016,-2.5021,-2.5016,-2.5034,-2.5038,-2.5035,-2.5048,-2.5046,-2.5014,-2.4982,-2.5048,-2.5046,-2.4928,-2.4925,-2.4922,-2.4856,0,0,0,0,0,0,-2.5015,-2.5011,-2.4991,-2.5004,-2.5002,-2.4962,-2.5014,-2.5019,-2.5014,-2.5019,-2.5027,-2.503,-2.505,-2.5016,-2.5012,-2.4981,-2.5045,-2.4931,-2.4927,-2.4923,-2.4861,-2.4851,-2.4843,0,0,0,0,0,-2.5016,-2.4972,-2.499,-2.4987,-2.4978,-2.496,-2.4959,-2.4983,-2.5011,-2.4991,-2.5002,-2.503,-2.4987,-2.5013,-2.5008,-2.4976,-2.4933,-2.4928,-2.4923,-2.4866,-2.4853,-2.4843,0,0,0,0,0,0,-2.4953,-2.4974,-2.4994,-2.4953,-2.4955,-2.497,-2.4945,-2.4969,-2.4962,-2.4967,-2.4997,-2.4998,-2.4961,-2.4966,-2.4994,-2.4925,-2.4965,-2.4959,-2.4923,-2.4911,-2.4902,-2.49,-2.5043,0,0,0,0,0,-2.4935,-2.4919,-2.4938,-2.49,-2.49,-2.4922,-2.4915,-2.4934,-2.4936,-2.4937,-2.4946,-2.4946,-2.4932,-2.4923,-2.4911,-2.4864,-2.4865,-2.4839,-2.483,-2.4822,-2.4815,-2.479,-2.4778,-2.4904,-2.4904,-2.4904,0,0,-2.4896,-2.4906,-2.4894,-2.4888,-2.4891,-2.4873,-2.4922,-2.4901,-2.4888,-2.4933,-2.4903,-2.491,-2.4912,-2.4871,-2.4854,-2.4874,-2.4782,-2.4816,-2.4809,-2.4807,-2.4783,-2.4771,-2.4761,-2.49,-2.4901,-2.4901,0,0,-2.4816,-2.4823,-2.4792,-2.4795,-2.48,-2.4815,-2.4808,-2.4819,-2.4826,-2.4797,-2.483,-2.4815,-2.4791,-2.4791,-2.4788,-2.471,-2.4734,-2.4706,-2.4655,-2.4629,-2.4619,-2.4611,-2.4581,-2.457,-2.47,-2.47,-2.4699,0,-2.4767,-2.4742,-2.4772,-2.4749,-2.4745,-2.4788,-2.4755,-2.4757,-2.4757,-2.4752,-2.4776,-2.4748,-2.4752,-2.4712,-2.4693,-2.469,-2.4681,-2.4703,-2.4619,-2.461,-2.4603,-2.4575,-2.4564,-2.4696,-2.4696,-2.4697,-2.4697,0,-2.4681,-2.4663,-2.4637,-2.4638,-2.4632,-2.4604,-2.4629,-2.4619,-2.4639,-2.4652,-2.4621,-2.4629,-2.4619,-2.4612,-2.4631,-2.4574,-2.4586,-2.4614,-2.4654,-2.4586,-2.456,-2.455,-2.469,-2.4692,-2.4693,-2.4694,0,0,-2.4558,-2.4578,-2.4567,-2.4568,-2.4578,-2.4564,-2.4539,-2.4531,-2.4521,-2.4521,-2.4499,-2.4479,-2.4505,-2.4501,-2.4521,-2.4499,-2.4435,-2.453,-2.453,-2.451,-2.4371,-2.4348,-2.4335,-2.4453,-2.4451,-2.445,-2.437,0,-2.448,-2.4438,-2.4465,-2.4418,-2.4401,-2.4443,-2.4421,-2.4423,-2.4435,-2.4423,-2.4436,-2.442,-2.4457,-2.4455,-2.4435,-2.4447,-2.4407,-2.4454,-2.4431,-2.443,-2.4426,-2.4322,-2.4298,-2.4222,-2.4361,-2.4359,-2.4358,0,-2.4381,-2.4378,-2.433,-2.4343,-2.4337,-2.4317,-2.4312,-2.43,-2.4304,-2.4314,-2.4311,-2.4337,-2.4312,-2.4354,-2.432,-2.435,-2.4343,-2.4348,-2.4346,-2.4342,-2.4387,-2.4313,-2.4199,-2.4186,-2.4342,-2.4344,-2.4345,0,-2.4294,-2.4277,-2.4246,-2.4246,-2.4262,-2.4246,-2.4252,-2.4258,-2.4252,-2.4248,-2.4244,-2.4237,-2.4232,-2.4226,-2.4248,-2.4277,-2.421,-2.4254,-2.4216,-2.4215,-2.4197,-2.4197,-2.4077,-2.4198,-2.4198,-2.4198,-2.4198,0,-2.4201,-2.4169,-2.4207,-2.4188,-2.4153,-2.4186,-2.415,-2.416,-2.4166,-2.4149,-2.4185,-2.4167,-2.42,-2.4186,-2.4204,-2.4171,-2.417,-2.4176,-2.418,-2.4171,-2.417,-2.4164,-2.4169,-2.4195,-2.4196,-2.4196,-2.4197,0,-2.4096,-2.412,-2.4089,-2.4107,-2.4111,-2.4084,-2.41,-2.4082,-2.4098,-2.4075,-2.4071,-2.4095,-2.408,-2.4104,-2.4091,-2.4103,-2.4058,-2.4072,-2.4056,-2.4059,-2.4019,-2.4021,-2.3888,-2.3872,-2.4005,-2.4004,-2.4003,0,-2.4033,-2.401,-2.4026,-2.4018,-2.4022,-2.4008,-2.4002,-2.4034,-2.4026,-2.403,-2.4011,-2.4,-2.3992,-2.3967,-2.3982,-2.3973,-2.3985,-2.394,-2.3984,-2.3975,-2.3981,-2.3981,-2.3978,-2.3929,-2.3927,-2.3926,-2.3925,0,-2.3919,-2.3933,-2.3924,-2.3919,-2.3912,-2.391,-2.391,-2.3901,-2.3934,-2.3923,-2.391,-2.3904,-2.3892,-2.3879,-2.3875,-2.388,-2.3906,-2.3912,-2.3902,-2.389,-2.3881,-2.3883,-2.4028,-2.3914,-2.3915,-2.3916,-2.3916,-2.3917,-2.3831,-2.3812,-2.3821,-2.381,-2.3814,-2.3814,-2.3798,-2.3813,-2.3802,-2.3795,-2.3815,-2.3796,-2.3802,-2.3799,-2.3801,-2.3786,-2.3806,-2.3792,-2.3788,-2.3783,-2.3776,-2.3886,-2.3785,-2.3786,-2.3786,-2.3786,-2.3787,0,-2.3717,-2.3725,-2.3715,-2.3715,-2.3706,-2.3736,-2.3738,-2.3728,-2.3711,-2.3715,-2.3708,-2.3692,-2.368,-2.3696,-2.3687,-2.3672,-2.3684,-2.3668,-2.3668,-2.3668,-2.376,-2.3768,-2.3659,-2.3659,-2.3659,-2.3659,-2.3659,-2.3659,-2.3655,-2.3625,-2.364,-2.3612,-2.3621,-2.3603,-2.3602,-2.3601,-2.3605,-2.3585,-2.3577,-2.3588,-2.3596,-2.3589,-2.3579,-2.3585,-2.3578,-2.3557,-2.3566,-2.365,-2.3662,-2.3674,-2.3682,-2.3556,-2.3556,-2.3476,-2.3475,-2.3474]}]]